RH
99 93 99 49 31 30 31 61 68 73 82 68 54 34 28 24 17 12 9 7 5 5 8 7 9 10 13 14 13 14 13 13 13 14 14 14 15 16 17 18 18 18 20 21 22 23 24 24 24 24 43 77 70 67
100 100 99 88 33 31 32 42 59 60 65 69 57 45 36 29 25 19 14 13 11 8 8 11 13 15 15 15 15 15 15 16 16 16 16 16 16 17 17 18 20 20 23 23 23 24 29 27 24 39 67 79 78 78
100 100 78 87 36 34 34 39 50 56 54 57 53 52 48 40 32 25 21 17 15 14 15 12 15 19 18 16 16 16 16 16 16 16 17 16 17 18 18 19 21 24 26 25 25 30 29 26 51 73 85 90 86 76
100 100 87 55 27 33 34 33 41 54 56 56 53 49 45 43 38 32 30 23 18 18 16 16 15 16 16 16 16 16 16 17 17 18 18 18 18 18 17 20 20 27 28 27 26 28 33 50 62 86 94 87 79 74
100 100 100 96 42 25 32 30 31 40 47 50 51 51 50 43 37 36 33 29 27 21 21 17 16 15 14 14 15 16 16 17 17 18 19 20 18 19 20 21 23 31 28 28 36 43 56 67 86 98 90 77 63 61
100 100 100 100 71 28 21 27 27 30 35 36 35 34 40 44 42 38 33 30 31 27 24 20 19 18 18 19 19 20 19 21 21 20 19 19 21 24 24 24 32 30 30 47 53 53 68 73 86 88 81 70 66 66
100 100 100 100 99 72 33 24 21 22 24 24 24 24 23 24 29 34 34 44 42 35 28 22 18 18 20 20 21 21 23 26 25 22 22 27 30 30 28 30 34 35 44 58 62 75 90 92 84 82 81 78 70 70
100 100 100 100 100 100 93 69 59 76 78 47 34 28 25 22 21 18 21 31 36 35 34 24 19 26 37 33 37 34 35 36 32 34 32 37 39 39 31 36 36 53 64 60 77 97 98 91 83 78 77 76 76 77
100 100 100 100 100 98 100 100 100 100 100 99 99 88 49 37 29 28 30 29 27 26 23 20 22 29 33 38 44 46 46 46 41 37 40 41 34 32 38 36 40 51 77 91 100 100 88 88 82 79 86 85 82 86
100 100 100 100 100 100 100 100 100 100 100 99 99 90 79 91 96 75 40 31 25 21 16 14 16 17 25 30 35 40 43 44 36 33 44 39 29 37 54 61 96 92 92 100 99 98 96 88 88 92 95 90 93 94
100 100 100 100 100 100 100 100 100 100 100 100 92 87 91 98 94 82 94 96 76 52 48 38 27 26 28 40 56 56 47 49 44 36 40 33 32 61 96 100 100 100 93 92 95 92 86 90 98 99 100 100 100 88
97 98 99 100 100 100 100 100 100 100 100 100 100 100 100 100 100 100 96 89 70 67 62 60 72 72 66 100 100 99 93 84 72 67 65 51 60 73 98 100 100 99 94 93 90 86 94 100 100 100 100 99 84 74
59 84 77 64 73 86 93 94 100 100 100 100 100 100 100 100 100 98 80 66 62 60 58 64 74 83 92 100 100 98 97 97 91 80 75 78 81 87 85 88 90 89 92 87 94 100 100 100 100 100 95 89 77 47
9 14 23 30 22 31 37 52 73 88 92 100 100 100 100 100 98 100 89 73 68 75 78 76 78 86 91 100 100 100 100 100 98 88 89 100 98 95 95 100 98 92 96 100 100 100 100 100 99 98 90 66 39 23
12 10 8 7 7 10 15 21 28 46 57 81 96 100 99 100 100 100 100 100 99 98 98 95 90 95 98 100 100 100 100 100 98 100 100 99 100 100 100 100 100 100 99 100 100 100 100 100 98 88 55 38 26 20
10 9 9 10 10 9 7 6 10 20 26 44 67 84 95 100 100 100 100 100 100 100 100 100 100 100 100 100 100 100 100 100 100 100 100 100 100 100 100 100 100 100 100 100 100 99 95 90 75 54 34 24 20 18
11 10 9 8 8 8 10 12 8 5 8 15 27 50 53 49 87 98 100 100 100 100 100 99 100 100 100 100 100 100 100 100 100 100 100 100 100 100 100 100 100 100 100 99 94 86 70 51 35 25 21 20 19 18
13 12 11 10 9 9 9 9 11 11 8 7 7 10 14 17 27 20 31 67 95 100 99 100 100 100 100 100 100 100 100 100 100 100 100 100 100 100 100 100 99 95 85 68 52 38 29 25 23 24 24 21 20 20
14 14 13 12 11 10 12 12 12 11 10 10 10 9 8 12 18 28 46 66 89 99 100 100 100 100 100 100 100 100 100 100 100 100 100 100 100 98 92 79 62 46 37 33 30 27 26 29 28 26 25 24 23 23
17 16 15 13 12 12 12 12 12 12 11 15 30 52 55 38 32 33 36 47 64 80 89 94 95 96 100 100 100 100 100 99 97 95 90 79 67 53 40 36 34 32 28 28 28 28 26 25 26 26 27 30 30 33
15 14 13 12 10 9 9 9 10 11 14 30 42 55 78 78 79 83 87 93 87 91 82 77 73 71 66 60 56 51 43 41 36 34 30 29 30 29 28 28 28 28 28 27 26 25 26 27 29 33 37 41 40 44
7 7 8 9 10 11 12 17 30 39 51 56 53 57 66 78 93 100 100 89 83 77 68 62 50 40 38 32 24 21 20 19 20 21 23 26 28 31 33 34 32 30 27 25 26 27 23 27 36 43 50 53 46 47
8 9 13 70 74 46 59 96 100 68 67 100 100 100 100 100 98 91 80 72 63 57 48 38 32 24 21 18 17 16 19 23 27 29 31 31 35 40 40 37 34 31 28 23 26 32 36 38 38 42 50 61 53 52
16 18 27 99 100 100 86 75 82 87 92 99 100 92 80 81 91 94 75 55 42 35 30 26 23 22 21 22 24 26 24 27 33 38 42 43 41 40 42 38 36 34 36 35 34 29 27 29 34 42 51 70 63 58
100 100 100 100 92 78 81 84 91 98 97 100 99 82 66 76 76 72 58 44 34 32 28 26 24 24 26 26 31 34 33 39 42 46 54 57 52 45 37 32 36 41 34 27 25 22 20 21 39 55 62 78 73 67
100 100 98 80 83 99 93 98 91 75 73 74 65 86 94 80 63 42 32 36 34 31 29 29 28 30 35 39 41 46 54 60 61 54 52 50 42 34 35 37 31 26 27 25 21 17 16 20 44 63 67 81 84 79
100 94 92 80 60 65 72 100 100 100 100 99 94 79 55 39 30 31 44 40 39 37 34 34 37 43 47 50 54 51 50 48 45 41 39 40 44 44 38 33 29 26 24 23 20 18 20 27 49 60 85 97 98 97
100 100 100 100 100 100 100 100 100 100 100 77 53 38 32 34 47 50 46 44 40 36 37 40 44 48 47 46 42 40 41 41 46 52 53 47 41 39 38 35 30 26 24 23 22 22 26 39 48 72 95 100 100 100
100 100 100 93 87 98 99 87 66 49 42 37 40 50 56 58 56 54 46 41 40 43 45 47 47 48 46 42 37 37 42 52 55 54 49 44 42 41 37 32 28 26 24 24 25 25 30 43 53 75 99 100 100 100
98 97 96 90 81 65 53 47 44 46 55 68 72 68 59 51 46 42 43 52 57 56 54 49 47 45 43 42 42 48 53 56 52 45 42 40 38 34 29 26 24 23 23 22 23 25 27 37 54 65 83 100 100 100
35 33 31 30 33 37 39 47 51 56 58 56 50 45 42 45 47 59 62 57 53 50 45 40 39 44 54 57 57 54 49 45 42 38 35 30 26 23 21 20 19 18 18 18 20 22 27 38 54 77 100 100 100 100
68 71 70 69 72 71 68 65 57 50 45 45 42 44 43 42 38 38 43 43 44 46 48 50 51 54 54 51 47 44 39 33 28 27 25 22 20 18 17 16 15 15 16 18 21 22 26 36 66 94 100 100 100 100
61 59 56 54 50 48 48 46 45 45 42 39 38 41 43 48 54 71 72 69 66 63 59 55 52 48 44 39 33 29 29 28 24 22 20 19 18 17 15 14 14 12 11 12 15 19 26 41 71 100 100 100 100 100
Wind_Speed
48 51 55 49 48 46 44 41 38 36 34 32 31 32 33 33 34 35 36 37 38 38 37 37 35 35 33 33 30 29 29 27 26 27 27 27 29 30 32 34 35 38 39 40 42 43 45 49 49 50 45 40 41 42
42 53 53 51 47 47 45 42 40 37 35 34 32 32 31 31 32 33 34 35 37 38 37 37 37 38 37 35 33 30 32 29 31 30 30 32 33 33 35 37 39 42 40 43 44 43 46 51 51 51 46 44 47 49
43 46 43 44 46 48 47 44 42 38 36 35 33 32 31 30 31 32 33 33 35 36 37 39 37 37 38 37 35 34 33 34 33 33 34 36 37 37 39 39 41 42 40 44 48 44 47 51 50 50 47 47 50 52
39 44 47 43 41 46 47 45 44 40 38 35 34 33 31 30 32 33 32 34 35 35 37 36 37 38 38 39 38 38 38 38 37 38 38 40 40 41 41 41 44 40 42 43 45 46 52 54 51 49 49 50 52 55
37 40 40 45 45 40 46 45 44 41 39 36 35 34 33 33 33 33 35 35 35 37 36 36 38 38 39 39 40 41 41 41 41 41 42 43 44 43 44 46 43 38 39 43 47 51 52 52 49 49 50 52 55 59
36 35 34 36 43 39 40 43 42 41 38 37 35 34 35 34 34 35 36 36 35 36 37 38 38 38 40 40 41 42 43 42 43 44 45 45 44 45 48 49 42 41 40 46 50 53 53 50 48 49 53 56 60 63
43 39 33 31 38 42 36 36 38 39 38 38 37 36 36 35 36 37 36 33 35 36 37 39 39 40 40 40 40 41 40 39 42 44 44 42 44 49 52 50 40 41 46 51 54 53 50 48 50 53 56 60 62 64
50 48 43 34 36 38 39 40 38 37 36 37 37 37 38 37 38 38 38 38 39 39 40 42 42 39 37 38 39 40 40 42 44 45 47 46 48 50 54 44 44 45 50 54 52 50 49 52 55 58 61 62 64 67
52 47 49 45 40 39 39 40 42 43 42 41 42 41 39 37 38 37 39 40 41 43 44 45 44 44 42 41 42 43 44 45 48 49 48 49 51 52 46 46 48 51 54 54 51 51 53 55 59 62 64 67 68 69
49 51 52 51 46 45 41 41 40 39 37 37 38 41 40 37 38 40 40 41 41 44 46 46 43 43 43 43 42 43 45 46 49 49 49 51 52 50 47 47 49 53 52 53 55 58 60 63 65 67 68 70 68 68
42 45 49 50 49 50 45 45 43 41 38 38 40 38 39 37 38 41 42 42 42 40 40 40 42 43 42 41 43 44 46 48 50 50 52 53 52 51 50 50 50 51 53 57 59 62 65 67 69 68 68 67 66 66
39 37 41 42 44 46 48 48 47 44 41 39 39 39 40 40 42 46 46 44 41 39 40 41 42 42 40 40 44 48 49 49 50 52 56 56 53 50 48 51 53 57 61 61 62 64 66 68 67 66 65 65 65 66
35 38 38 39 40 40 41 41 45 50 49 43 39 39 40 43 47 47 45 45 44 42 39 37 37 37 43 46 47 47 48 50 52 54 52 50 49 50 52 54 58 61 63 66 68 68 68 66 64 63 63 64 66 67
26 31 36 40 42 43 43 45 44 43 46 50 48 46 45 44 47 48 49 47 47 47 46 46 48 48 50 48 46 47 52 54 55 55 54 54 56 58 60 63 64 64 67 68 68 66 64 62 61 62 63 65 66 66
19 21 24 30 36 42 44 44 44 47 45 46 49 48 47 47 47 48 49 51 52 53 53 52 51 51 50 51 54 56 56 57 57 56 57 59 61 62 65 66 66 65 66 65 64 62 60 59 60 61 63 65 65 64
17 18 21 23 25 27 32 40 47 48 47 47 49 50 52 50 49 49 50 53 57 59 58 56 56 58 60 61 59 58 60 60 61 62 63 64 64 63 62 63 66 65 61 59 59 58 60 61 62 63 63 63 64 64
20 20 20 21 23 26 29 29 31 39 47 50 50 50 50 51 52 53 54 51 49 50 53 52 48 51 54 55 57 59 60 61 61 60 59 58 60 61 60 59 57 55 55 56 57 59 60 61 62 61 61 62 63 61
27 26 26 25 25 27 30 32 33 32 32 35 41 49 52 52 52 51 52 55 56 50 46 44 45 45 46 47 49 51 53 54 55 57 57 57 56 54 53 52 53 54 54 56 58 59 60 60 60 60 60 59 59 58
34 33 33 32 32 32 32 33 34 34 34 33 33 34 38 44 48 49 49 48 47 46 43 41 42 43 45 46 47 48 49 50 51 50 50 49 49 50 52 53 53 54 55 56 56 57 56 56 57 57 57 58 57 54
40 40 39 39 37 36 36 36 35 35 34 34 35 34 34 35 36 38 41 44 46 46 43 43 44 43 42 43 44 45 45 47 48 48 49 51 51 51 52 53 53 54 54 53 53 54 55 55 55 55 56 54 51 47
45 44 42 41 40 39 38 35 34 33 32 32 33 32 29 29 28 27 27 27 28 30 33 34 34 34 34 36 37 38 40 41 43 44 46 47 48 49 50 50 51 51 52 54 54 54 55 55 55 54 52 49 47 44
42 38 36 36 36 35 34 31 28 27 29 25 24 26 25 25 26 26 27 27 28 29 31 29 28 29 32 34 35 37 39 41 42 43 44 45 46 47 48 49 51 52 53 56 57 58 58 58 56 54 51 48 46 42
37 34 31 28 25 27 26 22 25 23 26 21 23 23 24 25 27 27 27 26 25 25 25 27 30 33 35 37 40 41 42 42 43 45 46 46 47 47 49 50 53 57 57 58 60 60 60 61 59 55 50 46 44 40
29 30 31 36 32 30 26 26 24 20 24 30 30 28 29 26 23 21 21 24 24 26 30 32 35 37 41 43 45 46 44 43 43 44 46 47 48 49 53 55 57 60 62 61 62 63 65 65 63 56 49 44 41 39
26 30 37 36 29 23 21 21 21 19 17 18 18 17 19 22 24 25 25 26 30 32 34 37 40 43 45 46 45 44 44 44 46 46 48 52 54 55 56 57 56 56 59 58 58 60 65 66 57 47 43 41 40 38
18 29 34 33 31 33 28 20 22 22 18 22 26 25 23 24 24 25 27 32 35 37 39 43 45 46 46 44 45 46 47 48 49 50 52 54 57 57 54 53 53 53 54 54 55 57 58 49 39 36 37 38 39 38
19 22 30 29 27 28 31 30 30 34 29 27 22 21 23 26 28 31 35 36 39 42 44 46 46 46 46 47 49 50 49 49 51 52 52 52 50 50 52 53 53 53 53 54 53 52 49 41 34 33 35 36 37 38
18 20 28 31 30 27 29 30 32 29 22 21 24 28 30 32 33 36 38 41 43 46 48 49 49 49 48 48 48 48 51 50 49 49 50 51 50 51 53 54 54 54 54 53 51 49 46 41 36 35 36 36 37 39
16 18 19 19 20 22 21 19 20 22 26 29 32 34 35 37 39 42 45 46 47 48 48 47 46 47 48 50 49 48 47 49 50 51 51 52 53 55 56 56 56 55 54 52 50 47 45 43 40 39 39 39 40 43
14 14 16 17 18 19 22 24 27 30 34 36 37 39 41 44 47 48 48 47 46 47 48 50 50 50 51 52 52 51 51 52 53 53 53 54 55 56 57 57 56 56 55 53 51 49 47 45 45 44 42 42 43 44
16 18 21 23 26 29 32 34 36 38 39 41 44 46 47 47 47 46 47 48 48 49 50 51 52 50 48 49 51 52 53 53 54 55 56 57 58 58 58 58 57 56 55 53 52 51 49 48 46 44 43 42 44 46
25 27 29 31 33 35 37 39 41 42 44 45 45 43 43 44 46 47 49 49 48 48 49 49 48 49 50 51 52 52 53 54 55 55 56 56 56 56 58 59 60 60 59 58 56 53 50 48 47 43 42 42 44 47
31 33 34 36 36 37 38 39 40 40 42 44 45 46 45 45 44 43 44 44 45 46 46 47 48 49 50 51 52 52 52 53 52 51 51 52 53 55 57 59 58 58 57 55 53 51 50 49 47 45 46 47 49 50
Wind_Direction
202 195 193 192 194 196 198 198 199 199 201 205 206 205 206 207 209 212 215 217 222 224 227 230 229 230 230 232 233 236 238 240 245 248 254 259 266 271 278 284 288 289 292 295 297 301 307 308 311 316 315 305 304 308
208 202 195 188 197 198 199 200 201 202 202 206 211 210 210 210 212 214 216 219 222 225 227 229 228 228 230 234 237 238 241 243 248 252 259 264 268 274 279 282 286 288 292 294 299 304 304 306 312 315 310 306 308 311
197 192 190 193 200 201 201 203 204 204 206 207 210 215 215 215 218 219 219 221 223 225 226 227 228 231 233 236 238 242 246 249 253 258 261 267 272 276 280 283 285 289 294 297 299 303 302 306 312 307 305 306 310 313
202 197 194 192 199 202 203 204 206 207 208 211 212 213 217 221 223 224 225 225 226 227 228 229 230 233 236 239 243 246 249 254 257 261 265 269 274 276 280 283 285 290 292 295 297 298 301 307 309 305 306 310 312 311
199 210 208 203 197 202 205 206 208 210 212 214 217 218 219 222 225 229 230 230 230 231 233 234 235 238 241 244 247 251 254 257 260 265 268 271 274 277 281 285 287 289 294 294 296 298 303 303 303 304 306 308 309 310
200 196 203 207 196 201 206 207 209 211 214 215 217 220 224 226 228 231 233 234 237 239 240 240 240 244 246 249 252 256 259 263 265 267 271 274 277 279 282 286 292 292 291 290 297 300 299 300 302 303 305 305 308 310
204 204 205 206 204 202 205 206 208 211 216 221 224 225 227 230 233 235 238 240 242 242 244 244 244 247 252 255 258 261 263 266 268 270 272 276 279 280 284 289 294 291 289 294 297 297 296 300 303 303 303 305 309 312
203 211 207 205 209 209 210 214 215 217 220 223 226 228 232 235 238 239 240 240 244 247 248 249 250 252 257 261 263 266 268 269 271 274 276 278 280 283 286 294 289 289 292 298 296 294 297 301 301 303 304 308 311 311
198 202 205 207 212 214 215 216 223 227 231 230 232 231 232 236 240 243 245 246 246 248 249 252 255 258 257 262 265 267 270 271 273 275 277 279 281 284 291 290 288 290 294 292 289 292 299 303 304 305 308 311 311 310
196 200 205 208 214 218 222 221 222 226 228 227 231 230 231 237 244 246 246 248 249 251 253 256 259 263 265 265 266 269 271 272 275 276 277 278 282 287 288 285 287 291 290 289 293 296 300 303 306 307 309 308 307 306
199 197 204 210 216 221 226 224 225 228 229 235 239 241 242 245 240 244 251 257 255 254 258 260 261 262 264 271 273 271 272 273 273 274 277 279 283 287 281 279 285 291 293 293 295 298 300 302 305 305 304 303 303 305
232 225 211 211 214 219 225 230 233 233 235 235 239 242 245 248 253 255 255 257 259 258 258 262 265 259 262 276 280 273 271 273 276 281 283 284 286 286 283 281 283 289 294 296 298 298 299 301 301 301 301 302 305 307
229 234 236 238 234 229 230 232 236 236 236 237 234 237 241 246 248 252 254 256 259 262 263 267 269 261 262 271 277 273 273 273 279 284 288 287 286 284 285 286 289 293 296 297 296 297 297 298 298 299 301 304 306 307
220 225 230 235 237 239 243 246 244 241 241 238 235 236 236 241 245 248 254 257 259 262 261 264 264 265 265 269 270 271 273 277 282 286 288 286 285 284 285 287 290 292 293 293 293 294 295 295 298 302 305 305 305 306
215 221 226 229 231 234 234 236 241 245 246 246 243 239 237 240 245 249 251 253 257 260 264 267 267 269 269 272 275 277 275 279 284 283 281 284 286 285 283 283 283 284 288 291 292 292 295 299 303 304 303 303 305 307
220 222 226 231 235 236 238 236 234 235 239 243 248 250 248 244 244 247 251 254 254 258 262 266 267 270 270 273 274 273 276 280 278 277 275 276 276 277 276 277 282 288 289 289 293 298 302 303 303 304 304 305 306 308
232 234 237 239 239 240 242 243 242 240 238 238 240 243 246 250 252 253 254 258 260 259 259 261 264 266 267 269 272 274 272 271 269 267 268 270 273 278 281 283 285 289 295 300 303 303 303 304 304 303 304 305 306 308
245 246 247 248 249 248 247 248 248 247 246 245 244 244 245 247 250 253 254 257 261 265 265 266 265 265 264 263 262 263 263 265 267 270 274 277 278 280 283 288 295 301 303 302 302 303 302 302 304 305 305 306 307 308
250 252 254 254 254 253 250 249 248 250 253 253 256 256 254 252 252 255 256 258 261 263 265 264 263 262 262 264 265 266 267 269 271 273 276 281 288 295 301 301 300 300 299 299 300 301 303 305 306 307 309 309 309 309
254 255 256 256 255 254 253 251 250 249 250 250 251 253 256 260 262 262 264 264 266 269 271 271 271 270 269 269 272 275 278 282 286 290 295 298 300 300 298 297 297 298 299 300 301 302 303 304 307 309 311 312 310 309
254 255 254 253 252 250 250 249 249 249 252 250 248 249 254 259 265 268 270 271 274 275 275 280 284 288 289 291 292 293 293 294 294 294 295 294 294 295 296 296 297 298 299 300 301 302 305 307 309 310 311 310 308 302
249 245 241 239 239 240 241 244 245 242 242 248 257 256 255 258 259 260 267 275 277 278 284 286 288 291 292 295 297 296 296 296 296 295 294 294 294 295 296 296 297 298 300 302 303 304 306 306 307 307 307 306 305 299
238 230 220 210 226 227 223 225 233 243 227 234 241 238 244 252 267 273 278 274 272 278 286 292 297 300 302 303 302 300 298 297 296 295 295 294 294 294 295 297 299 300 302 303 304 305 304 303 302 301 300 299 300 294
206 205 196 197 208 215 220 231 234 238 239 242 255 263 269 272 263 255 258 268 279 285 289 294 298 300 300 299 297 296 296 297 295 294 294 294 295 296 297 300 301 302 302 304 304 305 305 303 300 296 293 292 296 290
187 201 201 205 204 207 215 220 227 235 238 239 243 248 258 261 263 265 272 283 288 288 292 295 297 297 296 297 295 295 297 294 294 295 294 293 294 295 297 298 298 298 298 301 303 304 304 302 298 292 289 290 292 288
195 203 205 204 216 219 222 226 227 234 256 275 275 267 263 263 268 278 289 285 285 287 289 292 293 293 293 293 294 295 294 295 294 293 293 293 294 295 296 296 297 299 301 302 305 306 308 305 296 289 288 289 290 288
203 202 203 201 210 216 219 233 248 253 256 256 251 255 265 278 287 288 280 280 283 288 291 293 292 291 289 289 290 290 291 291 292 293 293 292 293 296 298 300 302 303 304 304 305 309 310 303 293 288 288 288 289 288
197 198 206 214 227 244 243 238 239 245 251 263 272 276 279 279 277 276 279 284 288 291 291 290 288 287 288 289 289 291 294 295 295 295 296 295 296 298 300 302 302 303 303 304 305 306 305 300 292 288 287 287 289 290
214 215 220 233 244 243 245 259 269 272 273 274 273 274 276 277 279 283 287 289 291 290 289 289 289 290 291 293 295 297 297 297 297 297 297 297 297 298 299 299 299 299 299 299 300 299 297 293 289 285 284 285 285 287
227 235 239 244 254 264 268 271 270 271 272 273 276 278 281 285 286 288 288 289 289 290 291 292 292 292 293 294 295 296 296 297 297 297 296 295 295 296 297 297 298 297 297 296 294 293 291 288 284 282 282 281 282 283
265 267 267 269 267 266 267 269 272 275 277 280 281 282 284 284 285 288 288 288 288 288 289 290 291 292 293 294 295 296 297 297 298 299 299 299 299 299 299 299 298 297 295 293 290 288 286 283 282 280 278 277 278 280
251 254 257 259 262 266 269 272 275 277 279 280 282 284 286 287 287 288 289 288 287 288 290 291 291 291 293 294 296 297 298 299 301 301 302 302 303 303 303 302 300 298 294 290 287 284 280 277 276 275 273 273 274 275
269 271 272 273 274 275 276 279 280 281 282 284 284 285 286 286 287 288 289 289 290 290 291 292 293 294 295 296 298 299 301 302 304 304 306 307 307 307 307 305 303 299 295 291 286 281 276 272 271 269 268 269 271 274